GFSCGP_850_thetae_000.txt.gz
Theta_e
320 322 323 322 321 320 320 320 320 322 321 320 321 322 322 322 322 322 322 322 322 325 327 328 327 325 325 325 325 326 328 322 322 323 320 318 317 316 316 316 315 313 313 313
319 322 320 320 320 320 320 320 321 322 321 320 322 322 322 322 322 322 322 323 325 325 323 323 324 325 325 326 326 326 324 320 318 317 317 316 315 314 314 314 312 312 312 312
323 321 320 320 322 321 322 321 324 323 322 322 321 323 322 321 321 321 321 322 322 321 322 322 323 324 324 323 321 320 319 318 316 315 314 313 313 313 313 313 313 312 312 311
321 320 321 322 323 322 323 322 321 321 321 322 322 322 323 322 321 321 321 320 319 319 319 320 321 321 320 319 318 317 316 314 313 313 313 313 313 313 314 314 313 310 310 308
322 322 323 323 322 321 323 322 321 322 322 322 323 324 325 322 321 321 320 320 319 319 319 319 319 319 319 318 317 316 315 314 313 313 313 313 313 313 310 309 308 307 307 306
322 321 322 322 321 321 322 323 323 323 324 331 323 324 326 323 322 321 320 320 320 319 319 319 318 318 318 317 316 315 313 313 313 313 313 312 309 308 308 308 307 306 306 304
323 322 322 321 323 324 323 324 330 332 335 332 325 323 326 322 321 321 320 320 320 320 319 319 318 318 317 316 316 316 316 315 313 312 311 310 309 308 307 306 305 305 301 301
324 326 322 321 321 321 323 323 331 329 332 327 322 320 322 321 319 319 318 318 319 319 319 318 318 317 317 316 316 316 315 314 313 312 311 310 308 307 305 304 304 301 301 300
325 324 321 320 320 320 323 323 320 324 325 326 320 323 321 320 319 319 318 318 318 318 318 317 317 317 317 316 315 315 314 314 313 312 311 308 306 305 304 303 300 300 300 300
319 325 319 319 321 322 321 320 324 327 328 324 320 321 323 321 320 318 318 317 317 318 318 318 317 316 316 315 315 315 314 314 313 310 308 307 306 304 303 301 300 300 300 299
319 323 321 320 322 322 322 323 321 319 323 324 324 320 319 320 318 318 317 317 317 317 317 317 316 315 315 314 314 314 313 312 311 309 308 305 303 302 302 301 301 300 299 296
318 320 327 320 319 319 320 321 319 326 323 327 326 321 319 319 319 318 317 317 317 317 316 315 314 314 313 312 312 312 311 310 309 307 305 303 302 301 300 300 300 298 296 296
320 325 327 322 323 321 319 320 318 321 320 320 326 322 320 318 318 317 316 317 316 315 315 314 313 313 311 310 309 308 308 308 307 306 304 303 301 300 299 298 296 295 294 294
318 320 320 323 319 317 318 317 317 317 324 322 322 319 319 319 318 316 316 316 315 314 314 313 312 311 309 307 306 306 305 305 305 305 303 302 301 298 297 296 295 294 293 292
320 322 320 318 317 316 316 316 317 317 318 318 319 317 318 318 317 316 315 315 315 314 313 311 310 309 307 305 304 303 302 303 304 304 303 301 300 298 296 296 294 293 291 290
319 325 319 320 317 316 317 316 316 316 316 317 317 317 317 316 316 315 314 314 314 312 310 309 308 305 304 303 301 300 300 300 302 302 301 301 300 298 296 295 293 292 290 290
320 322 320 323 318 318 322 320 317 317 317 317 319 317 317 316 315 314 314 313 311 309 308 306 305 304 302 300 299 298 298 298 300 300 300 300 299 297 296 295 293 292 290 289
315 318 320 321 318 325 319 316 317 316 316 316 316 317 316 315 313 313 312 310 308 307 306 304 302 301 300 299 298 297 296 296 297 297 298 298 298 296 295 295 293 291 290 289
319 322 316 322 319 317 317 317 316 316 316 316 318 316 315 313 312 311 309 307 306 305 303 301 300 300 299 297 296 296 295 296 296 296 298 297 295 295 294 294 293 291 289 289
317 317 322 317 318 318 319 316 315 315 318 317 316 314 312 311 312 310 308 306 304 302 301 300 299 298 297 296 295 295 295 294 295 296 296 295 294 294 294 293 292 289 289 289
315 316 318 318 317 317 315 315 314 317 319 316 314 312 311 311 309 308 306 304 301 301 300 299 297 296 296 295 295 294 294 294 295 295 294 294 294 293 292 292 290 289 289 289
317 318 315 318 317 318 315 315 316 317 315 314 312 311 310 309 309 305 304 301 301 300 299 297 297 296 295 295 294 294 294 294 294 294 294 293 293 292 292 290 290 289 289 288
320 321 322 319 319 316 315 315 315 315 314 312 310 309 308 308 306 304 301 301 300 299 298 297 296 295 295 295 294 294 294 293 293 292 292 292 292 291 290 290 289 289 288 288
316 315 322 319 317 315 315 314 314 313 312 311 310 308 308 305 303 301 301 300 299 298 297 296 295 295 295 294 294 294 293 293 292 291 291 291 290 290 289 289 289 288 288 287
319 316 317 317 316 315 315 314 313 312 310 310 309 308 305 303 302 301 299 298 298 297 296 295 295 294 294 294 294 293 293 291 291 290 290 289 289 290 289 289 288 288 287 286
316 315 318 319 316 316 315 312 310 310 310 309 308 304 302 302 300 298 298 297 296 295 294 294 294 294 294 294 294 293 292 290 290 289 288 288 289 288 288 288 288 287 286 285

GFSCGP_850_thetae_003.txt.gz
Theta_e
321 318 318 319 319 319 318 318 319 318 319 319 318 318 318 320 320 321 325 324 324 324 324 324 324 325 324 324 328 326 323 321 322 323 323 321 319 316 315 314 313 313 313 312
317 318 319 319 320 320 319 320 321 319 319 318 318 318 317 320 319 321 322 322 322 323 324 324 324 325 325 325 326 325 323 322 321 320 319 318 316 314 312 312 312 312 313 313
319 319 319 320 320 321 320 321 320 320 319 318 319 319 318 319 320 320 320 320 320 321 321 322 324 322 321 322 322 321 321 319 318 316 314 313 312 312 312 313 313 311 309 309
319 320 321 321 321 319 323 321 321 320 319 318 316 319 318 319 319 319 319 319 320 321 320 320 319 319 320 318 318 318 317 316 313 312 313 312 313 313 313 313 310 308 308 308
321 320 321 321 320 320 322 321 321 321 320 320 319 319 320 320 320 318 318 319 319 319 319 319 319 318 317 316 315 314 314 313 313 312 312 312 311 309 307 307 307 307 307 307
320 321 320 320 321 320 320 322 322 321 321 321 322 323 325 323 320 319 320 320 319 319 319 318 318 318 317 316 315 315 315 314 313 312 311 310 309 308 307 307 307 306 306 305
321 321 320 321 321 321 320 321 322 322 320 321 325 324 324 319 319 319 319 320 320 319 318 318 318 317 317 316 316 316 315 315 314 312 310 309 308 307 307 306 305 304 302 300
322 322 319 319 320 320 321 322 319 326 319 322 317 322 319 317 318 318 318 318 319 319 319 318 317 317 316 316 316 315 315 314 313 312 311 310 308 306 304 305 305 302 300 301
324 322 319 318 318 319 323 318 318 320 319 318 319 319 318 317 317 317 317 317 319 318 318 317 317 317 316 315 315 315 314 314 314 312 311 308 306 305 307 304 302 301 302 301
319 322 318 318 320 321 319 318 320 316 320 318 318 323 323 321 319 316 315 316 317 317 317 317 316 315 314 314 313 314 314 313 312 311 309 308 307 306 304 302 302 302 301 301
319 322 319 319 319 320 320 322 319 318 315 316 316 317 318 318 316 315 316 316 316 315 315 315 314 313 312 312 311 310 310 310 310 309 307 306 306 304 302 302 301 301 300 298
317 317 314 319 318 319 319 320 320 314 321 314 312 314 316 315 316 316 316 316 315 315 314 314 313 313 312 310 310 308 307 307 305 305 304 305 305 303 302 301 301 299 296 295
318 317 316 321 321 319 319 319 321 318 310 314 312 315 317 318 317 317 315 315 314 313 313 313 313 310 309 308 307 305 304 303 302 302 304 305 304 303 301 300 298 296 295 294
319 319 315 315 317 315 316 317 317 318 313 315 314 317 315 317 316 315 315 315 314 313 312 311 309 308 307 305 303 302 300 299 299 298 303 302 301 302 300 297 296 294 294 292
317 318 317 316 315 316 316 316 315 316 314 313 314 317 316 314 314 314 314 314 312 311 310 308 306 305 304 301 300 299 298 298 297 297 297 299 301 301 298 299 296 295 294 290
318 316 314 316 317 316 315 314 314 314 315 315 315 317 315 315 314 314 313 311 309 308 307 306 305 304 301 300 299 298 297 296 296 295 295 296 297 299 299 298 297 293 292 290
313 308 311 316 315 313 312 315 317 316 316 316 314 316 313 312 312 311 310 308 307 306 304 303 303 301 300 298 297 296 296 295 294 294 294 296 297 297 296 295 294 293 293 290
309 311 307 308 307 311 318 315 315 316 315 315 316 314 312 311 311 310 308 307 306 304 303 302 300 299 298 296 296 295 295 294 294 293 294 294 295 295 295 294 294 293 292 290
315 306 305 310 309 311 314 316 315 315 315 316 314 312 312 311 310 308 307 305 304 302 301 300 299 297 296 296 295 295 294 294 293 293 294 294 294 294 294 294 293 292 290 289
313 305 307 305 307 306 311 316 316 315 312 315 313 312 311 310 303 307 306 305 303 301 301 299 298 297 296 295 295 294 294 294 293 293 293 293 292 294 293 292 292 291 289 289
305 304 305 309 303 308 312 315 315 312 311 315 313 311 310 308 308 308 307 304 302 301 300 299 298 297 296 295 295 295 294 294 293 293 292 291 292 293 292 292 290 290 289 289
308 307 311 309 309 309 313 314 311 312 315 314 312 310 310 309 308 307 303 302 301 300 299 298 297 296 296 295 295 294 293 293 293 293 292 292 291 291 291 291 290 289 289 289
313 311 311 310 309 311 315 315 316 316 314 313 311 310 308 308 307 303 303 301 299 298 298 297 296 295 295 294 294 293 293 293 293 292 291 291 291 290 290 290 289 289 289 288
313 316 309 311 315 316 315 315 315 315 314 311 310 309 307 307 303 302 300 298 297 296 296 295 294 294 294 294 294 293 293 293 292 291 290 289 290 289 290 290 289 289 288 288
312 316 313 311 314 315 315 315 313 313 311 311 310 307 308 303 301 298 297 297 296 295 294 294 293 293 292 293 294 294 293 293 292 291 289 288 287 288 289 289 289 289 288 287
316 312 309 309 315 315 314 313 312 311 310 310 309 305 302 300 298 297 296 295 295 294 293 292 291 291 291 293 293 293 292 293 292 291 289 288 287 288 289 289 289 288 287 286

GFSCGP_850_thetae_006.txt.gz
Theta_e
319 316 316 317 316 317 317 317 315 316 316 317 316 316 315 320 322 321 322 324 323 323 324 324 324 325 325 329 330 326 325 325 324 323 323 323 320 316 313 312 312 312 312 312
315 317 317 318 319 319 319 319 318 318 318 316 315 315 316 320 320 321 322 323 323 322 322 323 325 325 327 326 324 322 321 323 322 321 320 316 314 312 312 312 312 312 312 312
317 318 318 319 318 320 319 319 319 319 318 314 317 316 318 317 318 318 320 321 321 322 321 321 321 321 320 321 321 320 319 319 319 317 313 312 312 312 313 312 311 310 308 308
318 319 320 319 319 319 322 320 319 319 317 314 315 317 317 317 317 318 319 320 320 320 319 319 318 318 318 316 315 314 314 313 313 313 312 312 312 311 311 309 308 307 307 307
319 319 319 319 319 319 321 320 320 319 318 318 318 317 317 317 317 316 317 320 319 319 318 318 317 317 316 316 315 314 314 312 313 313 312 312 311 310 309 309 308 307 307 306
318 320 319 319 319 320 319 321 320 319 318 318 320 320 320 319 318 317 316 318 318 318 318 318 317 317 317 316 316 315 315 315 315 314 312 312 311 309 308 307 306 305 304 304
319 319 319 319 320 319 317 320 319 320 317 319 322 322 321 320 318 318 318 318 318 318 318 318 318 317 316 316 316 315 315 315 314 313 312 311 309 308 307 305 305 306 303 303
320 320 318 317 318 319 320 319 317 324 318 319 318 321 318 317 319 319 320 319 319 318 318 318 317 316 315 315 315 315 314 314 314 313 312 309 307 305 305 306 306 305 303 301
320 320 319 317 317 319 321 315 316 317 314 315 317 318 317 316 316 317 317 317 318 317 316 316 316 316 315 314 314 313 313 313 312 309 307 307 306 305 305 304 302 302 301 301
319 319 318 317 320 319 315 316 319 313 317 317 316 320 319 318 316 314 313 315 316 315 315 315 313 313 312 311 311 310 309 308 307 305 304 303 303 304 303 303 302 302 301 301
319 317 317 319 318 319 318 318 317 315 312 314 314 315 315 317 315 313 314 315 315 314 313 312 311 310 310 309 308 306 305 303 301 300 300 300 301 303 304 302 301 300 300 299
316 313 312 318 317 318 318 319 315 312 319 310 309 313 314 313 314 315 314 314 313 313 312 311 310 309 308 306 305 304 303 302 300 299 298 300 303 303 302 302 301 301 299 297
316 313 313 318 319 316 318 318 319 313 307 313 309 310 315 315 314 314 313 313 312 312 311 310 308 306 305 304 303 302 301 301 299 298 297 297 296 296 298 301 301 297 294 293
317 317 313 316 316 314 315 315 317 314 310 313 311 314 315 313 313 313 312 312 312 311 311 308 304 304 303 302 301 300 300 299 298 297 296 295 294 295 298 300 296 295 297 294
315 315 315 314 314 315 315 314 314 315 314 314 313 314 316 313 312 313 312 312 311 309 306 304 305 303 301 300 300 299 298 297 296 295 294 293 292 294 294 295 295 296 293 292
313 312 311 315 316 315 314 313 313 313 313 313 315 315 312 312 313 311 310 310 308 305 303 303 303 301 299 299 298 297 297 296 295 294 293 293 292 292 293 293 295 294 293 290
310 306 306 311 310 310 309 313 316 315 314 314 312 313 311 311 311 309 308 308 306 303 302 302 301 299 298 298 297 296 295 295 294 294 293 293 293 292 292 293 295 294 293 293
308 309 302 304 302 306 315 313 314 316 316 313 312 310 310 311 310 309 308 306 304 303 302 301 300 298 298 297 296 296 295 295 294 294 293 293 293 292 292 293 293 293 292 291
309 301 305 304 306 306 311 314 314 313 316 313 312 311 310 310 308 307 307 305 304 302 301 300 299 298 297 296 296 295 295 295 294 293 293 293 292 291 292 292 292 292 292 289
308 301 304 306 302 302 307 314 315 313 312 313 312 311 310 309 302 305 306 307 304 301 301 300 298 297 297 296 295 295 295 294 293 293 293 292 292 291 291 292 292 291 289 289
303 300 304 303 299 305 307 312 314 312 309 313 313 312 310 306 307 306 306 305 302 301 300 298 297 296 296 295 295 294 294 293 293 293 293 292 291 291 291 291 290 290 290 289
308 306 304 301 302 309 310 313 311 310 315 315 314 312 309 309 308 307 306 302 300 299 298 297 297 296 294 294 294 293 293 293 293 293 293 290 290 290 290 290 290 290 289 288
311 307 308 309 309 309 312 314 314 314 315 314 313 311 310 307 308 306 302 300 299 298 297 296 295 294 293 293 291 292 293 293 293 292 292 290 289 290 289 290 289 289 288 288
311 312 308 310 313 312 314 314 315 315 315 314 313 310 307 307 305 301 299 298 297 296 295 293 292 291 290 290 291 293 293 293 292 292 292 291 288 287 287 289 289 288 288 288
309 313 311 308 312 314 315 315 315 314 313 312 311 310 308 306 301 300 297 296 296 294 292 291 290 290 290 290 290 290 290 290 291 292 292 290 288 287 287 288 288 288 288 287
313 311 309 311 313 313 313 315 314 313 312 311 311 308 304 302 299 297 296 295 293 292 290 290 290 290 290 290 290 290 290 290 290 291 291 290 289 287 287 288 288 287 287 285

GFSCGP_850_thetae_009.txt.gz
Theta_e
317 315 315 315 315 315 316 315 314 313 315 314 314 315 317 319 321 321 320 321 323 324 324 325 326 325 325 326 328 328 328 326 324 324 323 322 322 316 314 312 312 312 312 312
314 317 316 316 317 318 317 317 317 316 314 315 317 316 316 318 320 321 319 321 323 325 326 327 326 325 328 329 328 325 325 324 322 321 321 319 317 313 312 312 312 312 311 310
316 317 317 317 317 319 319 318 318 317 315 315 317 317 315 316 318 320 319 319 321 322 323 323 324 325 325 324 321 318 319 321 321 321 317 312 312 312 312 312 311 310 309 308
317 318 318 318 318 318 321 319 318 316 316 318 315 318 317 316 317 318 319 319 319 319 320 320 320 319 318 316 315 314 313 313 313 313 312 312 312 312 311 311 310 308 307 306
319 319 318 318 318 318 320 319 318 318 315 315 316 316 317 316 318 318 318 319 318 318 318 317 316 316 316 315 315 315 314 315 315 314 313 312 312 311 310 308 307 306 305 304
318 318 318 318 318 318 318 319 318 317 316 317 319 317 317 316 317 316 317 318 318 318 317 317 317 316 316 315 315 315 315 315 314 314 313 312 311 309 308 307 306 305 305 305
317 317 316 318 320 318 317 318 318 319 316 318 318 320 318 316 315 316 316 317 318 317 317 317 317 316 316 315 315 315 315 314 314 314 313 313 310 308 307 306 305 303 302 302
319 319 317 315 318 319 318 318 318 322 317 318 317 320 317 316 317 318 318 318 317 317 317 317 316 316 315 315 314 314 314 313 312 311 308 307 306 303 302 303 303 303 301 302
319 319 317 316 316 318 319 315 315 315 311 315 316 317 315 315 316 317 318 317 317 317 317 316 316 314 314 313 313 312 310 308 306 304 303 302 300 300 303 304 303 302 301 301
318 317 317 316 318 317 316 315 317 312 315 316 316 318 316 315 315 313 313 314 315 315 315 314 313 312 311 312 310 307 305 305 304 302 300 299 299 302 301 302 301 301 301 301
318 314 316 317 317 317 317 317 314 313 311 313 313 317 312 314 313 312 312 313 313 313 312 311 311 311 310 308 306 304 303 302 301 299 298 297 297 296 295 294 296 300 300 299
316 312 312 317 315 316 316 317 313 309 317 308 307 313 312 312 313 313 312 312 312 311 310 310 310 308 306 304 303 302 302 301 300 299 298 297 295 294 292 293 297 299 298 299
315 312 313 318 317 314 318 317 314 310 307 314 307 309 313 313 313 312 311 311 311 310 310 309 307 305 304 302 302 302 301 300 299 297 296 295 294 293 292 291 293 296 295 295
316 314 312 315 316 313 314 315 315 312 309 311 309 312 314 312 311 311 311 311 310 310 309 305 304 304 303 302 301 300 299 298 297 296 296 295 293 292 292 291 292 294 294 296
312 313 314 313 313 314 314 314 314 315 313 313 313 312 313 311 310 311 311 310 310 309 306 304 304 303 301 300 300 299 298 297 296 296 295 294 293 292 292 291 291 293 295 295
309 311 309 315 313 313 313 311 310 311 312 313 314 315 312 312 312 311 311 310 309 308 305 303 303 303 301 299 298 297 297 296 296 295 294 293 292 292 292 291 292 293 294 294
307 305 304 306 308 309 306 310 313 313 314 312 313 312 310 310 311 311 310 310 309 306 303 302 302 300 299 298 297 296 296 296 295 294 294 293 292 292 292 291 291 293 293 293
307 304 299 303 301 304 309 310 312 313 314 312 311 310 310 311 312 311 310 309 307 305 302 301 300 299 299 297 296 295 295 295 294 294 293 292 292 292 292 291 292 292 292 292
307 301 305 302 304 305 309 313 314 313 313 311 310 309 310 311 310 309 309 307 305 303 301 301 300 299 297 296 295 295 295 294 294 293 292 292 292 292 291 291 291 291 292 291
305 299 302 303 300 301 305 312 313 312 310 313 311 309 309 307 303 305 309 306 306 304 301 300 299 297 296 295 295 295 294 294 293 292 292 293 292 290 290 291 290 290 289 289
303 298 300 298 298 304 304 312 312 312 309 313 313 312 309 306 308 307 307 306 305 301 300 298 297 296 296 295 294 294 293 291 292 293 293 292 291 290 290 290 290 290 290 290
309 306 302 303 302 308 308 310 311 311 311 314 314 313 311 311 309 307 306 303 301 300 298 297 297 296 294 292 291 290 290 291 292 293 292 292 292 290 289 289 289 289 289 288
309 306 307 307 308 308 310 313 314 313 313 314 314 313 312 310 309 307 305 301 299 298 297 296 295 292 290 290 290 290 290 290 290 290 290 291 291 290 288 287 288 288 288 287
309 309 306 309 311 310 311 312 312 314 314 314 315 314 312 309 307 306 301 298 297 296 295 293 291 290 290 290 289 289 290 289 289 289 290 291 291 288 287 287 287 288 287 287
308 310 310 307 309 312 315 315 314 314 315 315 314 313 309 307 306 302 298 298 296 294 292 290 290 290 290 289 289 290 289 289 289 289 290 290 290 288 287 287 288 288 287 286
310 309 307 308 311 313 313 314 314 314 314 314 312 310 308 308 303 298 297 295 293 291 290 290 290 290 289 289 289 289 289 289 289 289 289 290 290 289 288 287 287 287 286 285

GFSCGP_850_thetae_012.txt.gz
Theta_e
316 313 313 315 313 312 313 314 313 313 313 315 316 316 315 319 318 318 319 321 323 324 324 325 326 326 325 324 326 326 326 326 325 323 320 320 320 318 315 312 312 312 312 311
313 315 315 316 316 316 315 314 315 314 314 316 317 315 313 315 318 318 320 322 324 324 324 325 328 329 329 328 326 324 324 323 321 321 321 317 313 312 312 311 311 312 310 310
314 316 316 317 316 318 318 316 317 315 317 315 317 317 315 316 318 319 320 323 324 325 326 327 327 326 323 320 319 318 318 317 317 314 311 313 312 312 311 311 311 310 310 309
317 317 317 316 317 317 320 318 316 315 316 319 315 321 317 317 318 317 318 320 321 321 322 322 321 317 315 314 313 313 313 313 314 314 314 313 313 313 312 311 310 309 308 306
318 318 317 317 318 318 319 316 316 315 314 314 316 317 315 317 319 317 317 318 319 319 319 317 316 315 314 314 315 314 314 314 314 314 314 313 313 312 310 309 308 307 305 304
316 317 316 317 317 317 317 318 315 315 314 315 316 316 316 316 317 317 317 318 317 316 316 316 316 315 315 315 315 315 315 314 314 313 313 312 311 309 307 305 304 305 302 302
316 316 315 317 319 316 316 316 317 318 315 317 316 318 315 315 314 317 317 318 317 316 316 316 315 316 315 315 315 314 314 314 313 312 312 309 307 304 302 301 302 303 302 301
318 317 316 315 317 318 317 317 316 320 317 318 316 320 317 313 316 319 318 317 317 317 316 315 315 315 315 315 314 313 313 312 310 308 306 304 302 300 300 299 297 298 299 300
318 318 316 315 315 317 317 314 314 314 311 314 315 316 315 314 314 316 317 317 316 316 316 315 314 314 313 313 312 311 309 307 304 301 299 298 297 297 296 296 295 294 294 297
317 317 315 315 317 315 316 313 315 311 315 315 315 317 316 316 315 314 314 315 315 314 314 313 312 312 312 311 310 307 306 303 302 300 300 299 297 296 295 294 293 292 291 299
315 313 314 316 316 317 316 315 312 312 309 311 311 314 311 314 315 312 312 315 314 314 313 311 311 311 311 311 311 310 304 303 301 299 298 297 295 295 293 292 292 291 293 298
314 312 312 316 315 315 315 316 311 308 313 307 305 310 309 310 312 313 312 313 313 312 311 310 310 310 309 308 304 304 302 301 299 298 296 296 295 294 292 291 291 290 291 296
313 312 314 316 314 313 317 316 311 308 307 313 309 310 311 311 311 312 311 311 310 309 309 310 309 308 305 304 303 302 301 299 298 297 296 295 294 293 292 291 290 290 290 294
313 311 312 313 314 312 314 316 312 311 308 310 309 310 314 311 310 310 310 310 310 310 309 309 306 304 303 302 304 302 299 298 297 296 295 295 294 293 291 291 291 290 291 293
310 313 313 313 312 313 313 313 313 313 311 312 311 309 310 311 309 310 311 310 309 309 308 306 305 304 303 304 302 299 298 297 296 295 295 294 293 292 291 291 291 290 292 292
307 309 308 315 311 310 313 311 310 311 311 311 312 311 309 311 311 310 310 310 309 309 307 305 304 304 302 301 300 299 297 296 295 295 294 294 293 291 291 291 291 291 292 292
305 304 304 304 306 305 306 308 309 309 309 309 312 310 309 309 310 310 310 310 311 310 307 304 303 301 301 300 299 297 296 295 295 295 294 293 291 292 291 291 291 291 292 292
303 302 298 303 300 303 308 308 309 311 312 310 311 310 310 311 311 312 312 312 311 309 306 303 301 301 300 299 297 296 295 295 295 294 293 292 292 292 291 290 290 290 291 291
304 300 302 303 302 304 307 311 312 312 311 310 310 309 310 311 311 311 312 311 310 307 304 302 301 300 298 297 296 295 295 294 294 293 291 292 292 292 291 290 290 290 290 290
303 298 301 298 300 301 305 308 312 311 311 311 310 308 309 309 305 309 312 310 309 306 303 301 300 299 297 296 295 295 294 293 291 291 292 292 292 291 291 289 290 290 290 290
304 300 299 298 297 302 303 311 312 312 310 311 312 312 309 307 310 311 311 310 307 306 304 301 299 297 296 296 293 292 290 290 290 290 290 290 291 291 291 289 289 289 289 289
309 305 301 299 298 306 306 311 311 311 310 312 313 313 312 312 310 309 308 307 306 305 300 298 297 296 294 291 290 290 289 289 289 289 289 289 289 291 291 289 287 287 289 288
309 306 305 304 306 306 308 310 313 312 311 312 313 314 314 312 310 309 307 306 303 299 298 297 296 293 291 290 290 289 289 289 289 289 289 289 290 291 290 288 287 287 288 287
307 306 304 307 309 308 310 311 312 312 313 313 313 314 314 313 311 308 306 301 299 297 297 297 292 291 290 290 289 289 289 289 289 289 289 289 290 290 290 288 287 287 287 287
307 308 308 306 308 310 312 312 313 314 313 313 313 314 313 312 310 308 304 301 297 299 295 292 291 290 290 289 289 289 289 289 289 289 289 289 289 289 289 288 287 287 287 286
308 308 306 307 311 309 310 311 312 314 314 314 314 314 312 310 308 302 299 296 299 293 291 291 290 290 290 289 289 289 289 289 289 288 289 288 289 289 289 288 287 287 286 285

GFSCGP_850_thetae_015.txt.gz
Theta_e
315 317 317 316 313 312 313 314 315 313 315 320 320 320 319 318 319 320 321 323 323 325 325 325 325 326 326 325 324 326 326 326 324 324 323 321 320 319 313 312 312 311 312 312
317 317 315 316 316 316 316 316 316 316 317 320 320 321 320 318 318 318 320 321 323 324 324 325 326 326 327 326 325 326 323 323 321 321 320 313 311 312 311 311 312 311 311 310
318 316 315 317 317 319 318 318 316 319 319 318 321 321 322 320 319 318 319 320 322 324 327 329 326 323 320 320 320 320 318 318 318 313 312 313 312 312 312 312 311 311 309 307
319 316 316 317 318 317 320 317 317 319 320 322 316 321 321 321 321 320 319 319 321 326 325 322 318 317 316 314 313 313 313 313 313 314 313 313 313 313 312 311 309 307 306 305
318 317 317 319 317 317 319 316 318 315 317 318 319 323 319 321 323 322 320 318 318 321 320 317 315 314 313 313 313 313 314 314 314 313 313 313 312 311 310 307 305 304 305 304
316 316 316 317 316 316 317 318 318 317 318 321 318 320 321 323 324 322 319 318 316 317 316 314 314 313 314 314 314 314 314 314 314 313 312 311 310 308 305 303 302 301 300 297
318 317 315 316 319 317 318 320 323 324 326 322 317 320 321 319 319 321 319 318 316 316 315 314 314 314 314 314 314 314 314 314 313 311 308 305 302 300 299 299 297 296 295 295
319 318 316 315 318 319 318 320 325 323 324 323 317 323 322 316 316 319 319 318 317 316 315 314 314 315 314 314 314 313 313 312 308 304 302 300 299 297 296 296 295 293 293 292
320 320 315 314 315 318 318 318 316 318 313 319 319 318 317 315 315 317 317 317 316 316 315 315 315 314 313 313 313 311 308 306 304 302 300 299 297 296 295 295 293 292 291 291
318 319 315 315 316 315 317 314 319 317 319 318 316 318 321 319 317 317 317 317 316 316 316 315 313 312 311 311 309 310 307 304 302 300 299 297 296 296 295 294 293 291 290 290
314 317 317 316 317 319 318 317 314 315 315 316 317 317 316 318 318 317 318 316 316 316 315 314 311 310 309 308 307 305 304 304 304 299 298 297 296 296 295 294 292 290 290 290
314 316 319 317 315 315 316 316 315 318 314 312 314 317 311 314 315 315 315 315 315 315 314 311 309 309 308 305 305 305 304 304 299 298 297 296 296 295 294 292 290 290 290 290
314 317 320 319 316 315 317 316 312 311 312 316 324 316 312 312 312 313 314 313 313 313 311 308 308 307 305 303 303 304 303 300 298 297 296 296 295 294 293 291 290 291 290 290
313 313 316 320 315 314 316 316 312 314 317 314 317 316 313 315 314 312 311 311 311 311 309 309 308 307 305 303 304 305 300 299 298 296 296 295 294 294 293 291 290 290 290 290
313 316 313 313 312 313 313 314 313 314 314 318 315 313 313 314 315 312 310 310 310 309 309 309 309 306 304 305 304 300 299 298 297 296 295 295 294 293 292 291 290 290 290 291
308 313 310 315 312 311 313 312 312 313 313 312 312 314 312 311 311 310 310 309 308 309 309 309 307 305 308 303 301 300 298 297 296 295 295 294 294 293 291 291 290 290 290 290
309 309 309 311 307 308 312 311 312 311 311 314 315 315 312 312 311 311 310 309 309 310 310 309 307 305 302 301 300 299 298 296 295 295 295 294 293 292 291 291 290 290 290 290
306 305 303 311 305 313 312 310 310 311 311 310 311 312 312 312 311 311 311 312 311 311 310 308 305 302 301 300 300 298 297 296 295 295 293 293 291 291 292 291 290 290 290 290
304 306 306 314 310 308 310 308 312 314 314 312 312 311 310 310 311 311 312 312 312 312 310 307 303 301 300 300 298 297 296 296 294 292 290 290 291 291 292 291 291 289 289 290
305 302 310 306 311 311 310 306 312 311 317 311 312 310 309 310 316 315 313 313 312 310 308 304 302 301 300 298 297 296 295 292 290 290 289 289 289 290 290 290 291 289 289 289
310 306 309 302 312 309 306 309 311 315 315 309 312 312 309 312 314 312 312 312 311 309 306 303 303 299 297 297 296 293 291 290 289 289 289 289 289 289 289 290 291 289 287 288
312 311 310 302 308 313 305 311 315 314 311 310 313 313 313 312 312 311 311 311 309 306 305 305 299 297 297 295 292 290 290 289 289 289 289 289 289 289 290 290 290 288 287 287
313 311 312 309 312 307 307 311 312 312 311 311 312 312 312 312 310 310 309 308 306 305 301 298 297 301 294 291 290 290 289 289 289 289 289 289 289 289 289 290 290 288 287 287
308 305 309 309 309 307 308 310 310 310 311 311 312 312 312 312 311 308 307 306 302 298 297 297 301 294 291 290 290 289 289 289 289 289 289 289 289 289 289 289 289 288 287 287
309 307 309 308 309 309 311 311 310 311 312 312 313 313 312 313 311 309 307 302 298 298 298 299 292 291 290 290 289 289 289 289 289 289 289 288 288 289 289 289 289 288 287 287
308 310 312 314 311 310 310 311 311 312 313 313 313 313 313 312 310 307 302 296 297 298 299 291 291 290 290 290 289 289 290 289 289 289 287 288 288 288 289 289 288 288 287 286

GFSCGP_850_thetae_018.txt.gz
Theta_e
318 319 319 319 318 317 318 318 318 318 321 323 322 322 322 323 327 327 327 327 328 327 326 326 324 324 324 324 324 325 326 326 325 325 324 321 319 320 317 313 312 312 311 311
319 320 319 320 318 319 319 318 320 319 321 323 324 325 323 322 324 326 327 327 327 327 327 328 329 327 329 328 328 326 326 324 323 322 321 320 318 314 312 312 312 311 311 309
321 321 319 320 320 320 321 321 322 321 321 323 324 325 325 323 322 322 324 326 327 327 328 328 329 330 330 327 327 326 323 322 321 317 313 312 312 312 312 311 311 310 308 307
321 319 320 321 321 321 322 320 321 322 322 322 323 322 326 325 325 324 324 325 326 327 329 329 327 325 326 324 321 320 319 317 315 312 314 314 314 315 312 310 308 308 307 305
322 321 321 322 321 321 322 320 323 322 323 323 323 323 326 326 326 327 326 326 327 328 325 322 321 321 319 318 316 314 313 313 312 312 313 313 312 311 309 308 307 307 306 305
321 319 321 321 320 320 320 322 322 322 323 324 323 323 322 327 327 327 325 324 325 323 320 318 317 315 315 314 313 313 313 312 312 313 313 312 308 306 305 304 303 301 300 300
321 321 319 320 322 322 323 323 323 324 325 324 322 323 322 323 324 326 325 323 322 320 317 316 315 314 314 314 313 312 312 312 311 310 306 303 302 301 301 299 298 297 297 297
321 323 320 319 322 322 323 323 323 321 323 321 322 322 322 321 321 324 324 322 320 319 317 316 316 315 314 313 312 311 311 310 306 304 302 300 299 297 298 297 296 296 296 296
322 321 319 319 320 321 321 322 322 324 320 324 321 322 322 321 321 322 324 321 320 319 318 317 316 314 313 312 312 310 307 305 303 302 304 300 298 297 297 296 296 295 295 295
322 323 319 319 319 319 321 320 323 323 323 321 319 320 319 323 322 322 323 321 320 319 318 317 315 313 312 312 309 309 304 304 308 306 300 298 297 297 297 296 295 294 294 294
321 322 321 320 321 322 321 321 319 320 321 318 316 316 321 321 322 322 322 321 320 319 318 316 314 313 312 310 307 305 305 307 305 300 298 297 297 297 297 296 295 294 294 294
320 323 325 323 319 319 320 322 319 319 319 320 322 318 317 320 320 321 321 321 320 320 318 316 313 311 310 308 305 305 306 306 301 299 297 297 297 297 296 296 295 294 294 294
320 323 324 322 321 320 321 321 319 319 320 320 327 317 317 318 319 319 320 321 320 319 317 314 311 310 309 306 304 304 305 303 301 298 297 297 297 297 296 296 294 294 293 293
315 322 323 325 321 320 321 321 319 319 320 318 319 316 317 317 319 319 319 319 318 317 315 313 311 309 306 304 303 304 308 301 299 298 297 297 297 296 296 295 294 294 293 293
320 322 319 317 317 317 318 319 319 318 319 319 317 317 315 317 317 317 318 318 317 315 313 312 310 308 305 302 302 308 303 301 299 297 297 297 296 296 295 295 294 293 293 293
316 322 317 319 317 316 317 318 318 319 319 318 318 318 318 317 316 317 317 316 315 314 313 311 310 309 306 303 306 303 302 299 298 297 297 296 296 295 295 294 294 293 292 292
319 318 317 318 314 315 319 317 317 317 318 318 319 318 317 316 316 316 316 315 314 314 312 311 310 309 306 305 303 302 301 299 298 296 296 295 294 294 294 293 293 293 292 292
314 315 314 319 312 326 315 314 314 316 316 316 316 316 315 316 316 315 315 315 314 313 312 312 311 308 305 303 302 301 300 298 297 296 295 293 293 293 293 293 293 293 292 292
312 315 316 325 317 315 313 312 312 315 315 316 316 316 315 314 315 316 314 314 315 313 312 312 310 307 304 301 301 300 298 297 296 295 292 292 291 292 292 292 292 292 292 291
311 311 318 315 329 329 315 312 314 315 317 314 315 317 315 315 320 315 312 313 313 313 312 309 306 304 302 301 301 299 296 296 294 291 290 289 290 291 292 291 292 292 291 290
318 316 322 317 324 317 313 311 314 316 315 315 315 316 315 317 316 315 312 313 313 312 310 306 305 301 301 303 297 296 295 292 291 290 289 289 290 290 290 291 292 291 291 290
319 320 320 314 323 322 310 314 318 317 316 314 314 316 316 316 315 312 311 312 311 309 304 302 300 301 303 297 299 293 292 291 290 289 289 289 290 290 290 291 291 291 290 289
318 318 319 316 318 313 311 314 315 313 313 314 314 314 314 314 314 311 310 308 306 302 300 300 300 298 299 300 292 291 291 290 289 289 289 290 291 290 290 291 291 291 290 289
314 311 316 314 315 313 312 311 311 311 312 312 313 313 313 313 313 312 308 304 302 298 296 294 296 300 294 291 291 290 290 289 289 289 290 290 289 289 288 289 290 290 290 289
315 312 315 315 314 313 313 313 312 312 313 313 314 314 314 313 313 311 305 301 297 295 295 298 299 292 291 291 290 290 289 290 290 290 290 290 290 289 288 288 288 289 289 289
312 315 317 318 314 314 314 312 312 313 313 313 313 314 311 311 311 306 299 295 295 297 299 294 292 291 290 290 290 290 290 290 289 289 290 290 289 289 289 288 288 289 288 288

GFSCGP_850_thetae_024.txt.gz
Theta_e
321 322 321 322 321 321 320 321 320 320 321 321 321 321 320 322 324 327 327 329 329 329 329 329 328 327 326 332 334 333 331 330 328 325 325 325 324 321 320 318 316 314 313 312
321 321 321 321 321 321 320 320 319 319 320 320 319 319 321 322 324 326 327 328 329 329 329 331 331 330 330 334 334 333 330 330 327 326 326 325 322 320 318 316 313 312 312 312
322 322 322 322 320 320 320 321 321 320 318 318 322 319 321 321 323 324 326 326 328 329 331 331 332 332 332 333 333 332 329 328 328 327 324 323 321 318 316 314 313 312 312 311
323 322 322 321 321 320 322 323 322 322 322 320 323 324 324 325 323 324 325 326 327 327 330 331 332 333 333 332 331 330 328 328 326 324 323 321 318 316 316 314 313 312 311 309
325 320 320 321 323 323 322 322 323 322 321 325 324 323 325 325 325 326 326 327 328 328 329 331 332 332 331 330 330 330 327 325 324 319 319 319 318 316 314 313 310 307 306 304
321 321 323 323 322 322 323 323 324 322 322 328 322 325 324 325 325 321 325 326 327 328 330 331 332 331 330 330 327 325 323 319 318 318 318 317 315 313 311 308 307 306 302 300
321 320 322 323 321 321 321 321 324 328 329 330 323 323 325 325 324 325 326 326 327 328 330 331 330 328 326 325 323 321 317 317 317 317 316 315 313 310 308 310 308 304 299 298
321 325 321 321 321 324 324 321 327 329 327 327 324 323 323 325 324 325 327 328 329 330 329 327 326 324 322 320 319 317 317 316 314 312 310 309 308 311 311 308 300 297 298 296
325 323 322 322 321 321 321 322 322 325 329 327 321 319 321 324 323 323 328 328 330 328 326 323 322 321 320 319 318 317 316 314 311 309 308 308 311 311 304 300 298 298 296 296
324 324 324 322 321 321 321 321 324 322 323 323 320 320 323 325 322 323 327 328 328 327 324 321 320 319 319 319 318 316 315 313 310 307 308 310 309 304 300 299 300 299 297 296
322 324 323 323 322 319 323 322 320 320 327 331 329 321 320 320 321 323 324 327 327 326 323 321 320 319 319 319 317 316 315 311 307 307 309 308 305 301 300 300 300 299 297 297
321 321 327 321 322 323 322 324 322 333 325 330 330 324 320 320 320 321 322 324 326 325 323 321 320 320 319 318 317 316 313 309 308 308 307 305 301 301 301 300 300 299 298 297
323 322 325 322 323 323 322 321 320 323 327 328 331 325 321 319 318 319 320 322 325 325 324 323 321 320 319 318 317 314 311 308 308 306 304 302 301 301 300 300 300 299 298 297
322 322 321 326 322 324 325 322 321 321 330 327 324 320 319 320 320 319 319 319 321 323 324 323 322 321 319 318 316 314 310 308 307 305 304 301 301 301 300 300 300 298 297 297
322 323 322 321 321 322 323 322 321 321 322 323 323 320 319 319 319 318 318 319 319 319 322 322 323 321 319 318 316 313 310 308 307 306 302 301 300 300 300 300 299 298 297 296
322 325 324 325 323 322 321 321 321 319 319 320 319 320 319 318 319 318 317 317 318 318 318 320 322 322 320 318 316 314 310 308 308 305 302 301 300 300 299 299 298 297 295 295
326 329 326 323 319 319 319 321 319 319 319 319 320 321 320 319 318 318 318 317 317 317 317 318 320 321 320 318 316 314 310 307 307 305 302 301 300 299 298 297 295 295 294 295
326 326 326 327 317 322 317 318 317 317 317 317 316 318 317 318 318 317 316 317 317 318 317 317 318 319 318 317 314 311 308 306 306 303 301 299 299 298 295 294 293 294 294 294
322 325 325 327 322 319 317 317 316 316 317 317 316 316 315 316 316 317 317 317 316 315 315 315 316 317 317 315 314 310 307 306 303 301 299 298 296 295 293 293 293 293 293 293
317 322 327 322 328 327 321 317 316 316 319 316 316 316 316 315 322 319 317 316 315 315 315 315 315 316 315 314 311 307 305 302 300 300 296 296 294 294 293 293 293 293 293 293
322 324 322 324 325 325 318 316 316 318 322 317 316 316 316 318 318 318 317 316 315 315 315 315 315 313 311 308 304 302 300 299 296 297 295 293 293 292 292 292 292 293 292 293
322 326 324 327 323 323 315 316 318 321 316 315 315 315 315 316 316 317 316 316 315 314 315 313 310 306 301 300 300 299 298 296 296 293 293 294 291 291 292 293 292 291 292 293
324 324 328 322 324 318 315 315 314 315 315 315 315 315 315 316 315 315 316 316 313 311 308 304 304 301 298 298 298 300 295 294 293 294 293 290 291 292 292 291 290 290 290 292
320 318 323 321 316 316 315 315 315 315 316 316 316 316 317 317 317 316 316 312 308 303 300 300 299 298 298 296 294 294 296 294 294 292 290 291 291 290 290 291 291 291 291 289
321 318 318 319 318 316 316 317 317 317 317 317 316 316 313 314 315 314 308 305 301 299 299 299 298 298 298 298 297 295 294 293 290 290 290 290 290 290 291 291 291 291 290 289
318 318 323 324 318 318 317 315 314 313 311 310 310 307 305 305 303 303 301 300 299 298 298 298 298 298 298 295 293 292 292 290 290 290 290 290 290 290 290 291 291 290 290 289

GFSCGP_850_thetae_027.txt.gz
Theta_e
321 318 319 320 320 320 320 318 317 316 317 321 320 318 318 321 326 325 327 328 328 327 325 325 325 326 330 331 330 329 328 327 328 325 320 324 324 322 320 319 317 312 312 312
319 319 320 321 320 320 321 321 319 317 318 318 318 317 317 318 322 326 323 328 328 328 328 327 327 326 331 332 331 331 331 329 328 324 321 325 323 320 319 319 315 312 312 312
321 321 321 321 321 321 321 321 320 319 317 316 320 317 319 319 322 325 325 328 329 329 329 328 328 330 332 333 333 331 331 329 326 326 326 325 321 320 319 317 313 312 312 311
321 321 321 321 321 320 320 321 321 321 320 316 319 319 324 322 322 322 325 328 329 328 329 330 330 329 332 333 334 331 330 326 325 326 327 324 322 320 318 315 313 312 311 309
322 323 321 322 321 321 321 320 321 322 321 322 322 320 319 322 320 322 321 324 328 328 330 331 331 332 331 333 331 331 327 328 328 328 326 322 320 317 316 314 312 311 309 310
321 321 321 321 321 321 321 321 322 322 321 321 321 321 323 322 322 322 323 325 326 328 331 331 332 332 332 331 330 328 328 326 325 323 323 319 319 316 314 313 313 310 310 308
319 320 321 322 321 321 321 320 321 322 321 323 324 323 322 322 321 323 323 323 324 329 330 331 332 332 331 329 328 330 327 324 324 319 319 318 317 316 315 313 310 312 307 300
321 322 321 321 320 322 320 321 323 325 326 324 324 324 322 321 322 323 323 323 322 329 330 331 332 331 330 329 328 325 324 323 320 319 318 317 316 314 312 310 311 309 301 297
322 323 322 322 321 321 321 319 323 324 323 324 321 318 321 321 322 322 322 321 328 329 331 330 329 329 328 327 325 323 320 318 317 317 317 316 315 311 310 311 307 299 297 296
322 323 322 322 322 320 320 319 321 320 321 321 318 319 324 322 321 322 321 327 330 330 329 328 327 326 325 324 322 319 317 317 316 315 313 311 309 310 308 303 300 298 298 296
320 323 324 323 323 320 320 319 319 319 319 320 320 319 318 318 320 320 324 329 330 329 327 325 324 322 321 320 319 317 317 316 315 312 310 308 309 306 303 301 299 299 299 298
320 321 321 324 321 321 320 321 322 316 319 317 315 317 317 316 318 320 321 327 329 328 326 323 321 320 319 319 319 318 316 315 313 311 308 308 307 303 301 300 300 300 299 299
322 319 315 317 318 321 321 320 320 322 317 318 314 317 316 317 317 319 320 321 327 327 325 322 320 319 319 319 319 318 316 315 312 310 308 308 306 301 301 301 300 300 299 299
322 321 317 316 318 321 322 323 321 319 315 317 316 319 317 315 315 316 318 319 323 326 325 323 321 320 319 319 319 318 317 316 312 309 308 308 304 302 301 301 300 300 299 298
319 319 320 321 322 322 321 322 321 319 319 318 318 320 318 317 315 316 318 318 318 320 323 323 322 320 320 319 318 318 317 315 312 308 308 306 303 301 301 300 300 299 298 297
320 321 321 321 320 318 318 319 318 318 318 317 318 318 316 317 317 316 317 316 318 317 317 317 322 321 321 319 318 317 317 314 310 308 307 306 302 300 300 299 299 298 297 295
319 315 314 319 315 314 310 313 316 318 317 317 315 315 313 315 315 316 317 317 317 317 317 317 319 321 321 320 318 317 316 312 309 308 307 302 301 300 299 298 297 295 294 293
317 317 312 313 311 308 313 315 314 316 314 313 313 313 314 314 316 316 316 316 315 316 316 316 316 317 319 319 318 317 314 310 307 307 304 301 300 298 297 296 294 294 293 294
320 312 314 312 313 313 315 316 317 315 314 314 313 313 314 315 315 317 315 315 315 315 314 314 315 316 317 317 316 315 309 307 306 303 301 300 297 296 295 295 294 293 293 293
315 313 309 311 313 311 315 315 315 315 313 315 315 314 315 315 309 314 316 316 315 315 315 315 315 315 316 314 312 310 306 304 301 299 297 296 296 297 295 293 293 293 292 292
311 310 310 308 309 313 318 315 315 311 312 316 315 315 315 314 316 317 316 316 315 314 315 314 314 313 309 306 307 304 300 299 297 297 298 299 299 294 293 292 292 293 292 292
314 313 309 313 314 316 315 315 311 315 315 315 314 314 315 315 315 315 316 314 314 313 312 311 311 308 303 302 303 302 301 299 299 300 300 298 294 293 291 292 292 292 291 290
316 317 314 315 313 315 314 314 314 314 314 315 316 316 316 317 317 316 312 312 310 309 309 306 306 304 302 301 300 300 301 301 299 297 294 294 290 291 292 292 290 290 290 291
318 318 314 314 316 315 314 315 316 315 316 316 317 316 316 316 315 312 309 306 305 304 304 302 302 301 300 299 300 299 298 297 295 294 291 290 290 290 290 290 290 291 291 291
316 315 316 314 315 317 316 316 316 316 316 314 314 312 310 313 309 308 304 302 301 301 300 299 299 298 298 298 298 297 295 293 291 290 290 290 290 289 290 290 290 290 291 291
316 315 311 309 317 314 312 312 313 313 310 308 310 308 305 305 304 304 302 300 299 299 298 298 298 298 296 295 294 292 291 290 290 289 290 290 290 290 290 290 290 290 290 288